Flight Track Log - Related Links

Times and Time Zones

All times are in EDT time to prevent confusion due to time zone crossing. See the SWA1621 flight status page for this flight to view local times or setup timezone preferences in your user account.

Time Position Orientation Groundspeed Altitude Reporting Facility
EDT Latitude Longitude Course Direction KTS MPH feet Rate Location/Type
Mon 02:35:14 PM 33.9500 -118.4500 254° West 177 204 1,000  Level Southern California TRACON
Mon 02:35:53 PM 33.9394 -118.4956 254° West 205 236 1,900 1,842 Climbing Los Angeles Center
Mon 02:36:55 PM 33.9300 -118.5775 262° West 242 278 4,100 2,274 Climbing Los Angeles Center
Mon 02:37:57 PM 33.9214 -118.6697 264° West 256 295 6,600 2,565 Climbing Los Angeles Center
Mon 02:38:59 PM 33.9117 -118.7667 263° West 292 336 9,400 2,565 Climbing Los Angeles Center
Mon 02:40:01 PM 33.9025 -118.8611 263° West 293 337 11,900 2,064 Climbing Los Angeles Center
Mon 02:41:04 PM 33.9269 -118.9597 287° West 326 375 13,700 2,016 Climbing Los Angeles Center
Mon 02:42:06 PM 33.9894 -119.0442 312° West 335 386 16,100 2,226 Climbing Los Angeles Center
Mon 02:43:08 PM 34.0683 -119.1542 311° West 360 414 18,300 1,935 Climbing Los Angeles Center
Mon 02:44:10 PM 34.1372 -119.2506 311° West 376 433 20,100 1,839 Climbing Los Angeles Center
Mon 02:45:12 PM 34.2075 -119.3481 311° West 384 442 22,100 1,776 Climbing Los Angeles Center
Mon 02:46:15 PM 34.2786 -119.4506 310° West 395 455 23,800 1,584 Climbing Los Angeles Center
Mon 02:47:17 PM 34.3536 -119.5553 311° West 408 470 25,400 1,645 Climbing Los Angeles Center
Mon 02:48:19 PM 34.4292 -119.6619 311° West 417 480 27,200 1,645 Climbing Los Angeles Center
Mon 02:49:21 PM 34.5253 -119.7886 313° West 426 490 28,800 1,210 Climbing Los Angeles Center
Mon 02:50:23 PM 34.6208 -119.8642 327° Northwest 438 504 29,700 1,161 Climbing Los Angeles Center
Mon 02:51:25 PM 34.7247 -119.9497 326° Northwest 449 517 31,200 1,728 Climbing Los Angeles Center
Mon 02:52:28 PM 34.8467 -120.0503 326° Northwest 442 509 33,300 1,440 Climbing Los Angeles Center
Mon 02:53:30 PM 34.9378 -120.1256 326° Northwest 440 506 34,200 823 Climbing Los Angeles Center
Mon 02:54:32 PM 35.0392 -120.2108 325° Northwest 442 509 35,000 871 Climbing Los Angeles Center
Mon 02:55:34 PM 35.1633 -120.3133 326° Northwest 449 517 36,000 484 Climbing Los Angeles Center
Mon 02:56:36 PM 35.2664 -120.4008 325° Northwest 451 519 36,000  Level Los Angeles Center
Mon 02:57:38 PM 35.3703 -120.4928 324° Northwest 462 532 36,000  Level Los Angeles Center
Mon 02:58:41 PM 35.4783 -120.5811 326° Northwest 467 537 36,000  Level Los Angeles Center
Mon 02:59:43 PM 35.5833 -120.6694 326° Northwest 466 536 36,000  Level Los Angeles Center
Mon 03:00:14 PM 35.6467 -120.7247 325° Northwest 460 529 36,000 -196 Level Oakland Center
Mon 03:01:15 PM 35.7519 -120.8144 325° Northwest 460 529 35,700 -780 Descending Oakland Center
Mon 03:02:17 PM 35.8586 -120.9042 326° Northwest 462 532 34,400 -2,129 Descending Oakland Center
Mon 03:03:19 PM 35.9661 -120.9956 325° Northwest 466 536 31,300 -2,927 Descending Oakland Center
Mon 03:04:20 PM 36.0914 -121.1028 325° Northwest 462 532 28,400 -2,488 Descending Oakland Center
Mon 03:05:22 PM 36.1911 -121.1875 326° Northwest 439 505 26,200 -2,129 Descending Oakland Center
Mon 03:06:24 PM 36.2864 -121.2722 324° Northwest 425 489 24,000 -2,293 Descending Oakland Center
Mon 03:07:25 PM 36.3822 -121.3408 330° Northwest 404 465 21,500 -2,585 Descending Oakland Center
Mon 03:08:27 PM 36.4869 -121.3872 340° North 399 459 18,700 -2,419 Descending Oakland Center
Mon 03:09:29 PM 36.5897 -121.4353 339° North 396 456 16,500 -2,293 Descending Oakland Center
Mon 03:10:30 PM 36.6875 -121.4844 338° Northwest 384 442 14,000 -2,439 Descending Oakland Center
Mon 03:11:32 PM 36.7842 -121.5275 340° North 373 429 11,500 -1,984 Descending Oakland Center
Mon 03:12:34 PM 36.8792 -121.5783 337° Northwest 353 406 9,900 -1,258 Descending Oakland Center
Mon 03:13:36 PM 36.9586 -121.6156 339° North 312 359 8,900 -1,355 Descending Oakland Center
Mon 03:14:38 PM 37.0486 -121.6619 338° Northwest 295 339 7,100 -1,463 Descending Oakland Center
Mon 03:15:39 PM 37.1131 -121.6911 340° North 289 333 5,900 -1,073 Descending Oakland Center
Mon 03:16:41 PM 37.1894 -121.7389 334° Northwest 274 315 4,900 -919 Descending Oakland Center
Mon 03:17:43 PM 37.2347 -121.7917 317° Northwest 237 273 4,000 -1,161 Descending Oakland Center
Mon 03:18:45 PM 37.2794 -121.8381 320° Northwest 220 253 2,500 -1,317 Descending Oakland Center
Mon 03:19:46 PM 37.3175 -121.8792 319° Northwest 198 228 1,300 -1,171 Descending Oakland Center
Mon 03:20:48 PM 37.3528 -121.9197 318° Northwest 163 188 100 -1,161 Descending Oakland Center
Mon 03:22:00 PM 37.3500 -121.9167 North  Level FlightAware Approximate
Mon 03:29:00 PM 37.3627 -121.9291 North  Level Estimated

Login

Don't have an account? Register now (free) for customized features, flight alerts, and more!